Weather History for Crescent City, CA

Change the Weather History Date:

Tuesday, March 12, 2013

  Actual Average Record
Temperature  
Mean Temperature 49 °F 48 °F  
Max Temperature 52 °F 55 °F 70 °F (1994)
Min Temperature 46 °F 42 °F 31 °F (1985)
Degree Days  
Heating Degree Days 16 17  
Month to date heating degree days 218 204  
Since 1 July heating degree days 3451 3377  
Cooling Degree Days 0 0  
Month to date cooling degree days 0 0  
Year to date cooling degree days 0 0  
Moisture  
Dew Point 46 °F    
Average Humidity 93    
Maximum Humidity 100    
Minimum Humidity 86    
Precipitation  
Precipitation 0.00 in 0.23 in 2.87 in (1990)
Month to date precipitation 2.98 2.79  
Year to date precipitation 11.45 22.06  
Since 1 July precipitation 45.15 49.16  
Snow  
Snow 0.00 in - - ()
Month to date snowfall 0.0  
Since 1 July snowfall 0.0  
Snow Depth 0.00 in    
Sea Level Pressure  
Sea Level Pressure 30.25 in    
Wind  
Wind Speed 4 mph (NNW)    
Max Wind Speed 12 mph    
Max Gust Speed 15 mph    
Visibility 4 miles    
Events      
T = Trace of Precipitation, MM = Missing Value Source: NWS Daily Summary

Daily Weather History Graph

Daily Weather History Graph

Search for Another Location

Airport:

Trip Planner

Search our weather history database for the weather conditions in past years. The results will help you decide how hot, cold, wet, or windy it might be!

Date:

Astronomy

Mar. 12, 2013 Rise Set
Actual Time 7:33 AM PDT 7:20 PM PDT
Civil Twilight 7:05 AM PDT 7:48 PM PDT
Nautical Twilight 6:33 AM PDT 8:20 PM PDT
Astronomical Twilight 6:00 AM PDT 8:53 PM PDT
Moon 7:41 AM PDT (3/12) 8:43 PM PDT (3/12)
Length of Visible Light 12h 42m
Length of Day
11h 47m
New Moon, 1% of the Moon is Illuminated
Mar 12
New Moon
Mar 19
First Quarter
Mar 27
Full
Apr 2
Last Quarter
Apr 10
New

Hourly Weather History & Observations

Time (PDT) Temp. Windchill Dew Point Humidity Pressure Visibility Wind Dir Wind Speed Gust Speed Precip Events Conditions
12:53 AM 48.2 °F - 46.4 °F 93% 30.25 in 9.0 mi SSE 5.8 mph - N/A   Overcast
12:56 AM 48.0 °F - 46.0 °F 93% 30.26 in 7.0 mi SSE 6.9 mph - N/A   Overcast
1:56 AM 46.9 °F - 46.0 °F 97% 30.25 in 7.0 mi SE 5.8 mph - N/A   Overcast
2:24 AM 46.4 °F 45.2 °F 46.4 °F 100% 30.25 in 3.0 mi ESE 3.5 mph - N/A   Overcast
2:56 AM 46.0 °F 44.8 °F 46.0 °F 100% 30.25 in 10.0 mi ESE 3.5 mph - N/A   Overcast
3:56 AM 46.9 °F - 46.0 °F 97% 30.25 in 10.0 mi Calm Calm - N/A   Overcast
4:40 AM 46.4 °F - 44.6 °F 93% 30.23 in 10.0 mi Calm Calm - N/A   Overcast
4:56 AM 46.9 °F - 45.0 °F 93% 30.23 in 10.0 mi Calm Calm - N/A   Overcast
5:54 AM 46.4 °F - 44.6 °F 93% 30.24 in 2.5 mi Calm Calm - N/A   Overcast
5:56 AM 46.0 °F - 44.1 °F 93% 30.25 in 2.5 mi Calm Calm - N/A   Overcast
6:03 AM 46.4 °F 44.3 °F 44.6 °F 93% 30.24 in 4.0 mi WNW 4.6 mph - N/A   Overcast
6:39 AM 46.4 °F 45.2 °F 44.6 °F 93% 30.24 in 2.0 mi NNW 3.5 mph - N/A   Overcast
6:53 AM 46.4 °F - 44.6 °F 93% 30.25 in 7.0 mi Calm Calm - N/A   Overcast
6:56 AM 46.0 °F - 44.1 °F 93% 30.25 in 8.0 mi Calm Calm - N/A   Overcast
7:18 AM 46.4 °F - 44.6 °F 93% 30.23 in 1.8 mi Calm Calm - N/A   Overcast
7:39 AM 46.4 °F 45.2 °F 44.6 °F 93% 30.24 in 2.0 mi North 3.5 mph - N/A   Overcast
7:47 AM 46.4 °F - 44.6 °F 93% 30.25 in 1.8 mi Calm Calm - N/A   Overcast
7:54 AM 46.4 °F - 44.6 °F 93% 30.25 in 3.0 mi Calm Calm - N/A   Overcast
7:55 AM 46.0 °F 44.8 °F 44.1 °F 93% 30.25 in 3.0 mi North 3.5 mph - N/A   Overcast
8:56 AM 46.9 °F - 45.0 °F 93% 30.26 in 1.8 mi ENE 3.5 mph - N/A   Overcast
9:31 AM 46.4 °F - 46.4 °F 100% 30.26 in 2.0 mi Calm Calm - N/A   Overcast
9:56 AM 48.0 °F - 46.9 °F 96% 30.27 in 5.0 mi Calm Calm - N/A   Overcast
10:39 AM 48.2 °F - 46.4 °F 93% 30.26 in 10.0 mi NW 6.9 mph - N/A   Overcast
10:56 AM 48.9 °F - 46.0 °F 90% 30.27 in 10.0 mi NW 6.9 mph - N/A   Overcast
11:29 AM 48.2 °F - 48.2 °F 100% 30.25 in 10.0 mi Calm Calm - N/A   Overcast
11:56 AM 52.0 °F - 48.0 °F 86% 30.26 in 10.0 mi WNW 4.6 mph - N/A   Overcast
12:29 PM 51.8 °F - 46.4 °F 82% 30.26 in 10.0 mi WNW 6.9 mph - N/A   Overcast
12:48 PM 48.2 °F - 46.4 °F 93% 30.25 in 1.8 mi WNW 5.8 mph - N/A   Overcast
12:56 PM 48.9 °F - 46.0 °F 90% 30.25 in 1.2 mi WNW 4.6 mph - N/A   Overcast
1:05 PM 50.0 °F - 46.4 °F 87% 30.25 in 2.0 mi WNW 5.8 mph - N/A   Overcast
1:13 PM 48.2 °F - 46.4 °F 93% 30.25 in 3.0 mi Calm Calm - N/A   Overcast
1:40 PM 50.0 °F - 46.4 °F 87% 30.25 in 1.8 mi WNW 5.8 mph - N/A   Overcast
1:46 PM 48.2 °F - 46.4 °F 93% 30.24 in 0.8 mi WNW 4.6 mph - N/A   Overcast
1:56 PM 48.9 °F - 46.9 °F 93% 30.24 in 0.8 mi NW 6.9 mph - N/A   Overcast
2:15 PM 50.0 °F - 46.4 °F 87% 30.23 in 1.5 mi NW 8.1 mph - N/A   Overcast
2:19 PM 50.0 °F - 46.4 °F 87% 30.24 in 3.0 mi NW 9.2 mph - N/A   Overcast
2:44 PM 50.0 °F - 46.4 °F 87% 30.24 in 1.8 mi WNW 10.4 mph - N/A   Overcast
2:56 PM 50.0 °F - 46.9 °F 89% 30.25 in 1.5 mi NW 11.5 mph - N/A   Overcast
3:01 PM 50.0 °F - 46.4 °F 87% 30.24 in 3.0 mi NW 9.2 mph - N/A   Overcast
3:56 PM 50.0 °F - 46.9 °F 89% 30.23 in 10.0 mi NNW 8.1 mph - N/A   Overcast
4:08 PM 51.8 °F - 48.2 °F 88% 30.23 in 10.0 mi NW 8.1 mph - N/A   Overcast
4:38 PM 48.2 °F - 46.4 °F 93% 30.22 in 4.0 mi NNW 5.8 mph - N/A   Overcast
4:56 PM 50.0 °F - 46.9 °F 89% 30.23 in 7.0 mi NNW 6.9 mph - N/A   Overcast
5:09 PM 48.2 °F - 44.6 °F 87% 30.22 in 1.8 mi NW 6.9 mph - N/A   Overcast
5:19 PM 48.2 °F - 46.4 °F 93% 30.22 in 3.0 mi NNW 6.9 mph - N/A   Overcast
5:32 PM 48.2 °F - 46.4 °F 93% 30.23 in 1.8 mi NNW 6.9 mph - N/A   Overcast
5:40 PM 48.2 °F - 46.4 °F 93% 30.23 in 1.0 mi NW 10.4 mph - N/A   Overcast
5:56 PM 48.0 °F - 46.0 °F 93% 30.25 in 0.8 mi NNW 9.2 mph - N/A   Mist
6:05 PM 46.4 °F 41.5 °F 44.6 °F 93% 30.24 in 1.0 mi NNW 10.4 mph - N/A   Overcast
6:13 PM 46.4 °F 42.4 °F 44.6 °F 93% 30.24 in 2.0 mi NNW 8.1 mph - N/A   Overcast
6:20 PM 46.4 °F 42.9 °F 44.6 °F 93% 30.24 in 1.5 mi NNW 6.9 mph - N/A   Overcast
6:31 PM 46.4 °F 43.5 °F 44.6 °F 93% 30.24 in 2.0 mi North 5.8 mph - N/A   Overcast
6:49 PM 46.4 °F 43.5 °F 44.6 °F 93% 30.24 in 1.2 mi North 5.8 mph - N/A   Overcast
6:56 PM 46.9 °F - 45.0 °F 93% 30.25 in 1.8 mi North 5.8 mph - N/A   Overcast
7:15 PM 46.4 °F 42.9 °F 44.6 °F 93% 30.24 in 3.0 mi North 6.9 mph - N/A   Overcast
7:35 PM 46.4 °F 43.5 °F 44.6 °F 93% 30.25 in 2.0 mi North 5.8 mph - N/A   Overcast
7:51 PM 46.4 °F - 44.6 °F 93% 30.25 in 3.0 mi Calm Calm - N/A   Overcast
7:56 PM 46.0 °F 43.9 °F 45.0 °F 96% 30.25 in 2.5 mi North 4.6 mph - N/A   Overcast
8:09 PM 46.4 °F 44.3 °F 44.6 °F 93% 30.25 in 1.2 mi NNW 4.6 mph - N/A   Overcast
8:33 PM 46.4 °F 44.3 °F 44.6 °F 93% 30.25 in 2.0 mi NNW 4.6 mph - N/A   Overcast
8:46 PM 46.4 °F 43.5 °F 44.6 °F 93% 30.25 in 6.0 mi NNW 5.8 mph - N/A   Overcast
8:56 PM 46.0 °F 44.8 °F 45.0 °F 96% 30.26 in 3.0 mi NNW 3.5 mph - N/A   Overcast
9:03 PM 46.4 °F 45.2 °F 44.6 °F 93% 30.26 in 2.0 mi NNW 3.5 mph - N/A   Overcast
9:24 PM 46.4 °F 44.3 °F 44.6 °F 93% 30.26 in 1.5 mi North 4.6 mph - N/A   Overcast
9:56 PM 46.0 °F 44.8 °F 45.0 °F 96% 30.26 in 2.0 mi NNW 3.5 mph - N/A   Overcast
10:04 PM 46.4 °F 44.3 °F 44.6 °F 93% 30.25 in 1.2 mi NNW 4.6 mph - N/A   Overcast
10:42 PM 46.4 °F 43.5 °F 46.4 °F 100% 30.26 in 3.0 mi NW 5.8 mph - N/A   Overcast
10:49 PM 46.4 °F 41.9 °F 44.6 °F 93% 30.26 in 1.8 mi NW 9.2 mph - N/A   Overcast
10:56 PM 46.9 °F - 45.0 °F 93% 30.27 in 1.0 mi NW 9.2 mph - N/A   Mist
11:04 PM 46.4 °F 42.4 °F 44.6 °F 93% 30.26 in 0.8 mi NW 8.1 mph - N/A   Mist
11:13 PM 46.4 °F 44.3 °F 46.4 °F 100% 30.26 in 1.5 mi North 4.6 mph - N/A   Overcast
11:17 PM 46.4 °F 43.5 °F 46.4 °F 100% 30.26 in 3.0 mi North 5.8 mph - N/A   Overcast
11:56 PM 46.0 °F - 46.0 °F 100% 30.25 in 2.5 mi Calm Calm - N/A   Overcast